Aérodrome :
LOGIN :

S'inscrire | Disclaimer

   EN    FR    IT 

 










Légende :    VFR   VFR Marginal   IFR   IFR Intensif   IFR Très Intensif
Visi : 
Plafond : 
>= 8 km
>= 3000ft
5 à 8 km
1000 à 3000 ft
1500m à 5 km
500 à 1000 ft
800 à 1500m
200 à 500 ft
< 800m
< 200 ft
Symboles :   Orages  Brouillard  Fortes neiges  Fortes précipitations  Vent > 20 kt
SIGMETs :   Divers  Orages  Givrage  Turbulence  Onde Orograph.  Cendres Volcan.







- Altitude de l'aérodrome : 56 ft
- Code IATA : ILY
- Voir les cartes d'approche


EGPI - Islay

DERNIER METAR :
  • 182150Z AUTO 12019KT 090V150 9999 BKN015/// 12/11 Q1003

METARs EXPIRÉS :
  • 182120Z AUTO 13020KT 100V160 9999 BKN016/// SCT023/// 12/10 Q1004
  • 182050Z AUTO 12018KT 090V150 9999 SCT019/// BKN024/// 12/10 Q1004
  • 182020Z AUTO 12019G30KT 090V150 9999 FEW024/// SCT039/// BKN046/// 12/09 Q1005
  • 181950Z AUTO 13021KT 100V160 9999 FEW021/// BKN048/// 12/09 Q1005
  • 181920Z AUTO 12017KT 090V150 9999 FEW021/// 12/09 Q1005
  • 181850Z AUTO 12017KT 9999 NCD 12/09 Q1006

Prévision TAF périmée.
Pas de NOTAMs connus pour ce terrain.



MET'MAP, la Météo Aéronautique d'un coup d'oeil ! - Copyright ORBIFLY Décembre 2007 - Disclaimer

ORBIFLY MET'MAP TEAM :

Programmation & Développement : Alexandra Zaïnal
Conception & Développement : Baudouin d'Aumeries
Co-Programmation & Développement : Marc-Olivier Méhu
Soutien technique & logistique : Manuel Goepfert

Contact : metmap@orbifly.com




SOURCES & CREDITS :

   NOAA